Location: Kudlacze
(49.7800°N, 20.0200°E)
Time: 02:40:15
(UTC+00:00)

ISS - Visible Passes

Search period start: 21 September 2021 00:00
Search period end: 01 October 2021 00:00
Orbit: 419 x 423 km, 51.6° (Epoch: 20 September)

Date Brightness Start Highest point End Pass type
(mag) Time Alt. Az. Time Alt. Az. Time Alt. Az.
21 Sep -3.8 18:10:03 10° WSW 18:13:26 89° NNW 18:14:52 32° ENE visible
21 Sep -0.8 19:47:05 10° W 19:47:52 16° WNW 19:47:52 16° WNW visible
22 Sep -3.8 17:23:11 10° WSW 17:26:33 72° SSE 17:29:49 11° ENE visible
22 Sep -2.8 19:00:08 10° W 19:02:48 47° NW 19:02:48 47° NW visible
23 Sep -3.5 18:13:10 10° W 18:16:32 64° N 18:17:42 36° ENE visible
23 Sep -0.6 19:50:11 10° WNW 19:50:41 14° WNW 19:50:41 14° WNW visible
24 Sep -3.6 17:26:14 10° W 17:29:36 73° N 17:32:33 13° ENE visible
24 Sep -2.3 19:03:15 10° WNW 19:05:33 38° WNW 19:05:33 38° WNW visible
25 Sep -3.5 18:16:19 10° WNW 18:19:41 61° N 18:20:23 47° ENE visible
25 Sep -0.3 19:53:14 10° WNW 19:53:22 11° WNW 19:53:22 11° WNW visible
26 Sep -3.4 17:29:22 10° W 17:32:43 61° N 17:35:12 17° ENE visible
26 Sep -1.9 19:06:19 10° WNW 19:08:12 30° WNW 19:08:12 30° WNW visible
27 Sep -3.9 18:19:24 10° WNW 18:22:47 78° NNE 18:23:01 72° ENE visible
28 Sep -3.6 17:32:28 10° WNW 17:35:50 67° N 17:37:51 22° E visible
28 Sep -1.4 19:09:23 10° WNW 19:10:51 22° W 19:10:51 22° W visible
29 Sep -3.6 18:22:25 10° WNW 18:25:42 63° SSW 18:25:42 63° SSW visible
30 Sep -3.8 17:35:29 10° WNW 17:38:53 83° SSW 17:40:36 27° ESE visible
30 Sep -0.9 19:12:43 10° W 19:13:36 15° WSW 19:13:36 15° WSW visible
